Dewpoint
66 68 68 69 69 69 68 69 67 67 67 67 67 69 68 71 68 67 69 69 69 69 71 73 74 72 71 72 69 74 76 74 73 76 78 78 78 77 77 77 77 77 77 74 71 73 76 75 75 76 75 72 73 70 69 71 74 74 75 77 74 75 77 76 74 73 74 77 78 72 71 72 75 74 72 72 72 71 72 70 72 72 72 71 70
69 69 69 69 68 67 69 68 69 69 67 67 68 68 68 70 70 70 66 69 70 70 71 70 70 70 70 71 73 71 75 77 71 72 75 77 74 71 72 74 75 75 77 76 74 71 72 73 72 70 72 70 70 68 69 70 69 70 72 73 73 76 76 74 74 73 72 76 75 77 73 71 71 74 74 73 72 72 70 67 66 68 73 72 70
70 71 71 71 70 67 68 69 69 68 66 66 67 66 66 68 68 68 66 67 69 69 71 70 74 75 72 72 74 72 74 73 73 75 75 75 75 73 72 72 74 73 73 74 74 73 72 73 71 71 71 72 73 71 69 69 69 70 69 70 72 71 74 75 74 73 72 73 75 72 74 74 73 75 75 74 74 73 72 69 64 64 65 71 70
72 72 70 69 67 68 68 68 66 66 65 65 65 65 65 66 68 67 66 65 67 68 69 71 72 76 73 74 74 75 74 74 73 73 74 74 74 75 74 74 73 73 73 73 73 73 72 73 72 72 72 73 73 72 73 72 72 73 73 73 75 73 73 75 75 74 73 72 74 74 74 74 74 73 73 72 71 73 73 72 69 66 66 67 68
71 72 70 67 67 67 66 66 66 67 67 64 63 63 64 65 67 67 66 66 66 68 72 71 73 74 71 71 74 76 73 73 74 72 72 73 74 74 74 75 74 74 74 75 75 74 73 73 72 72 73 72 73 73 71 74 75 75 72 76 76 75 73 75 75 74 73 72 73 74 74 74 73 74 74 72 72 73 75 75 72 71 72 68 68
71 72 71 69 70 67 66 66 66 66 67 66 63 62 64 64 66 67 66 66 67 65 68 68 71 73 74 72 72 74 75 74 75 74 74 73 74 73 74 74 74 74 74 73 74 74 73 73 74 74 73 72 72 73 74 73 74 73 72 76 75 75 76 76 75 74 74 74 73 72 74 74 74 74 74 74 73 73 74 74 74 75 73 70 68
73 73 72 70 70 68 66 66 66 66 70 70 69 66 65 65 65 65 66 67 66 64 64 69 71 71 73 72 70 74 74 73 77 74 74 74 73 74 72 73 74 74 74 73 73 73 72 71 73 74 74 73 72 72 72 73 71 72 76 76 76 76 76 75 76 75 74 74 74 73 73 74 75 74 76 77 76 75 73 72 72 74 74 72 71
74 73 72 72 73 72 70 69 71 72 73 74 74 72 68 65 66 65 68 68 65 65 64 68 67 68 70 71 72 74 74 73 76 76 76 75 74 73 74 74 74 74 73 73 72 71 73 71 69 70 72 75 74 73 74 73 73 74 73 74 75 76 76 76 75 76 75 74 74 74 74 75 76 76 75 75 75 76 73 73 72 72 72 73 73
73 72 74 74 74 75 75 75 76 76 77 77 75 76 74 70 69 71 72 67 64 65 66 65 68 68 68 71 72 71 71 71 73 74 74 73 75 72 72 72 74 73 72 70 73 73 75 71 70 69 73 75 75 75 75 78 75 74 76 76 76 76 76 76 76 76 75 73 73 74 74 74 74 75 73 73 74 74 75 74 73 73 73 73 73
74 74 75 75 76 76 77 77 76 76 76 79 79 79 75 74 70 71 70 69 72 74 73 71 66 67 68 69 70 69 70 71 71 71 72 74 73 72 71 75 75 75 74 74 70 70 70 72 72 71 73 74 75 76 76 76 75 75 75 76 76 76 75 75 75 75 74 73 73 72 72 71 72 75 73 74 76 76 74 74 72 73 74 73 73
75 75 75 76 77 77 76 76 76 78 78 78 78 79 78 76 75 75 75 71 75 77 73 70 68 69 70 69 69 69 69 67 66 65 66 69 72 73 72 74 75 74 73 75 75 72 71 71 70 70 72 71 75 75 75 75 74 74 74 75 77 76 75 73 73 73 73 72 72 73 73 72 72 73 73 71 74 75 75 74 73 72 71 71 70
76 77 77 77 77 77 77 77 77 78 77 77 77 77 77 77 77 77 75 71 76 72 70 70 72 71 71 69 70 68 65 65 63 64 65 65 69 71 69 68 68 70 73 71 71 70 71 71 71 70 71 74 74 73 74 75 74 75 74 75 76 77 77 76 74 73 73 72 73 72 71 72 73 73 72 73 74 75 75 74 73 71 71 71 72
73 75 77 77 77 78 77 77 77 78 77 77 77 77 77 77 76 76 75 74 74 76 75 73 72 72 71 71 71 66 63 62 61 62 62 63 65 70 70 72 70 69 69 72 71 73 74 74 73 72 73 75 74 73 74 73 74 74 75 75 75 75 72 72 73 75 73 73 73 72 72 73 73 73 73 74 75 74 75 74 73 72 72 72 72
72 73 75 75 76 76 75 74 75 76 77 78 77 77 77 76 76 75 75 76 75 74 73 74 72 73 73 71 68 64 61 60 59 59 59 61 63 67 72 72 70 70 71 71 73 72 73 74 74 73 70 71 67 68 67 68 70 71 72 73 74 74 76 73 71 72 74 73 73 72 74 75 74 75 76 76 75 74 73 72 74 74 73 72 73
73 73 73 74 75 74 74 74 73 75 75 76 76 75 77 77 77 77 76 76 76 76 74 72 71 72 73 69 64 59 49 56 56 56 57 58 61 68 72 73 72 72 71 71 72 72 74 74 74 73 71 65 64 65 64 64 66 67 68 68 69 71 72 72 74 74 75 75 74 74 74 74 73 74 74 75 74 74 74 74 74 74 73 73 73
73 73 71 71 73 71 71 73 74 73 73 73 72 73 75 77 76 77 77 76 75 74 74 72 71 72 72 67 63 53 46 53 53 54 55 56 60 69 72 74 73 72 74 73 74 75 74 74 74 71 66 61 60 61 62 65 65 65 66 66 67 67 69 74 67 70 73 73 73 74 74 73 70 74 73 73 74 74 74 74 74 74 72 71 71
72 72 72 72 72 71 70 71 72 72 71 70 70 72 74 75 76 75 75 75 73 73 73 71 72 71 70 66 60 55 51 52 52 51 52 55 63 70 72 71 73 71 70 71 72 72 73 72 71 68 62 58 58 58 60 64 64 64 64 64 64 65 67 73 67 65 64 63 63 64 64 64 64 64 63 64 68 70 72 72 71 71 69 68 69
71 72 71 70 70 70 70 70 70 70 70 71 72 73 74 74 74 74 74 73 71 71 72 71 71 71 68 63 58 56 53 53 50 50 50 53 63 63 65 64 60 62 65 66 68 72 71 69 66 61 58 57 56 57 58 63 63 63 63 63 64 65 66 64 64 65 66 65 65 65 64 64 65 65 65 65 65 68 71 70 71 71 69 69 69
69 70 71 70 69 68 70 70 70 70 70 72 72 72 72 72 74 74 72 71 71 71 72 71 69 68 65 62 60 58 55 54 50 49 48 50 61 62 62 60 56 57 60 63 64 66 67 65 64 61 58 56 54 55 57 61 61 62 63 64 64 65 63 62 62 62 65 65 67 70 71 69 68 67 68 69 68 69 69 70 72 70 69 70 70
68 69 71 70 69 70 70 69 70 70 70 71 71 72 72 73 72 72 71 71 70 69 69 69 67 67 65 62 59 58 57 56 55 50 48 49 53 62 61 58 55 55 58 63 62 64 66 63 60 56 55 54 52 52 53 55 59 62 64 64 63 63 61 59 61 63 64 65 66 67 69 70 70 70 71 71 71 71 71 71 72 70 70 70 69
70 70 71 70 70 70 70 70 68 68 68 68 68 68 69 69 69 69 69 68 68 68 67 67 66 66 66 66 65 63 60 58 57 51 49 49 51 57 56 57 53 56 60 61 58 57 60 62 63 57 54 54 52 51 50 52 54 60 64 63 62 62 58 59 61 64 65 65 65 66 67 68 69 70 70 70 71 71 72 72 73 73 72 69 68
68 68 68 68 68 68 68 68 68 67 68 67 66 66 67 67 67 67 67 67 67 66 66 66 65 63 62 61 61 63 64 63 60 54 51 49 50 53 56 55 54 56 60 57 57 58 62 62 61 60 54 53 52 50 49 50 53 60 64 55 54 56 60 61 62 64 65 65 65 65 66 66 67 68 69 70 70 71 72 71 71 68 67 66 70
67 67 67 67 67 67 67 67 67 67 67 67 67 66 67 66 66 67 66 65 64 64 64 65 64 63 64 65 65 65 66 65 62 62 53 50 49 51 51 55 55 61 58 55 57 59 61 59 57 60 53 50 49 50 50 51 55 61 52 51 54 56 60 62 66 65 66 65 66 65 65 66 67 68 69 70 71 71 72 70 67 67 67 67 66
66 66 66 66 67 67 68 68 67 67 67 67 67 66 66 66 66 65 65 64 64 63 64 64 65 65 64 65 66 68 68 68 63 59 59 53 50 49 50 51 52 56 58 57 58 63 64 60 60 53 48 47 48 49 51 54 59 52 51 53 56 60 62 66 66 66 66 65 66 66 66 67 69 68 69 70 71 70 69 66 65 64 64 63 64
64 64 65 65 65 65 66 67 67 67 67 66 66 66 66 66 66 66 66 66 66 65 66 66 66 66 66 65 65 66 68 68 66 65 62 62 54 52 52 53 53 52 56 55 61 64 59 52 49 49 50 50 50 52 54 56 53 52 53 55 64 63 67 68 67 67 66 66 65 66 67 68 68 69 70 70 68 67 66 63 63 62 61 61 61
59 59 60 62 61 60 60 61 62 64 64 65 67 68 68 68 67 67 67 67 66 66 66 66 65 65 64 64 65 66 67 66 63 59 59 59 59 57 57 58 63 63 62 59 60 57 54 52 51 51 52 55 62 66 66 67 60 59 59 62 62 65 65 65 65 66 65 66 66 67 68 68 68 69 68 68 66 66 66 65 64 63 63 62 61
58 57 57 57 59 60 59 58 58 60 63 65 65 66 66 66 65 67 68 65 64 64 65 65 66 64 64 64 64 62 56 57 56 57 56 56 56 58 59 59 60 60 60 58 58 57 59 60 60 58 57 60 63 64 64 65 66 64 62 64 64 63 64 64 64 64 64 65 65 66 66 67 69 68 67 67 67 68 68 68 65 64 65 64 62
53 52 51 52 52 52 52 56 54 51 51 51 51 52 51 50 48 50 49 47 53 58 57 56 57 56 56 57 58 57 56 55 55 54 55 55 55 56 57 58 57 58 57 55 55 56 59 63 63 65 66 65 64 63 64 65 67 63 61 60 60 61 62 62 62 62 62 63 62 63 65 66 64 64 64 64 65 65 65 67 67 67 67 65 64
53 46 46 46 49 53 48 50 49 49 48 48 50 52 53 52 50 49 51 50 50 49 52 53 55 51 52 57 59 56 56 55 55 48 53 46 51 53 55 54 53 54 56 51 53 58 62 63 65 65 65 64 64 63 62 62 62 60 54 57 57 57 59 58 58 58 59 59 60 61 60 61 61 61 62 61 63 63 62 64 67 66 67 66 65
54 51 51 49 49 51 52 50 53 52 49 50 51 52 52 47 52 52 50 51 47 45 49 51 51 55 52 54 56 54 54 56 45 42 40 41 41 42 43 42 42 47 49 48 51 56 61 64 64 58 56 57 55 55 52 54 55 55 56 58 56 56 56 56 57 56 58 59 58 57 57 57 57 58 58 57 60 60 61 60 62 63 63 63 63
54 52 55 56 57 58 56 56 57 58 57 56 54 52 51 54 43 46 51 49 44 40 39 42 45 48 59 55 55 48 47 44 41 40 40 40 40 40 40 40 41 41 43 51 59 63 63 61 54 55 55 57 55 53 55 55 56 56 55 55 56 56 57 56 56 57 56 56 58 58 58 56 56 56 56 56 56 58 59 60 61 61 60 59 59
57 53 51 54 58 57 57 60 61 62 62 61 60 59 57 57 56 48 42 45 45 41 40 40 41 42 45 51 61 59 49 43 40 40 40 40 41 40 40 41 41 41 45 46 58 63 61 58 57 54 55 54 54 55 53 53 55 56 56 56 56 56 57 57 60 56 55 55 55 55 54 54 54 54 56 57 56 57 58 57 59 59 59 59 61
52 52 55 57 57 59 57 59 60 59 59 61 61 61 59 57 58 56 59 44 43 42 41 40 40 40 40 40 42 46 46 41 40 40 41 41 40 41 41 42 43 44 46 55 62 61 60 58 54 55 54 54 54 54 56 55 55 55 55 55 54 56 57 59 60 56 55 54 54 52 50 50 52 52 52 52 52 53 55 56 59 59 59 57 57
60 59 59 61 63 62 57 59 56 60 61 61 59 59 59 60 60 58 56 57 58 56 45 41 40 41 39 39 41 41 41 41 40 40 40 41 41 42 41 47 45 45 50 59 62 58 55 55 55 56 56 56 55 55 56 56 56 56 56 56 54 54 55 55 54 53 52 53 52 52 50 49 51 50 49 49 49 50 51 51 51 52 52 51 51
60 59 58 60 62 60 60 60 59 61 59 61 62 61 60 60 57 58 58 58 57 57 55 56 47 40 52 45 41 38 40 41 40 40 40 40 41 41 47 60 63 63 60 60 62 59 55 56 56 57 57 57 57 56 56 56 56 55 55 55 55 54 54 52 52 55 53 52 52 52 51 51 50 50 50 49 48 47 48 49 50 50 50 50 50
59 58 58 57 59 59 58 59 61 62 62 65 64 59 58 56 54 54 55 57 57 59 58 58 57 49 44 43 40 39 39 40 40 40 40 40 41 46 56 60 56 55 56 59 57 58 58 57 57 58 57 57 57 56 56 56 55 54 53 53 54 54 52 53 54 54 54 53 52 53 51 51 50 49 48 48 48 47 46 46 47 49 49 50 50
50 52 54 57 59 59 59 59 61 62 61 59 59 59 58 57 57 55 58 58 59 55 58 59 58 53 52 54 54 43 40 40 41 40 40 41 40 51 53 56 58 56 57 56 58 57 57 57 59 58 56 54 53 52 55 55 54 55 56 57 57 57 54 55 54 55 54 51 52 53 52 51 50 50 48 47 47 46 46 48 48 49 49 49 48
55 54 54 56 59 60 61 62 57 58 63 59 59 56 55 57 56 54 53 55 53 54 53 54 58 55 54 57 59 54 56 46 42 44 43 42 50 55 56 57 60 59 57 61 62 58 60 60 56 56 56 55 54 53 51 52 52 52 54 56 57 60 52 56 55 54 54 54 52 52 50 50 51 50 50 48 47 47 47 46 45 45 47 50 47
54 55 55 55 55 57 55 56 56 53 54 54 51 54 53 51 50 51 54 52 52 51 51 52 52 52 57 61 61 59 60 57 53 52 53 54 59 59 58 57 57 55 54 55 54 60 58 56 56 57 56 55 57 57 55 52 52 51 53 55 54 54 52 52 53 57 53 50 48 48 48 49 50 48 47 46 45 45 44 45 45 46 45 45 46
52 52 53 53 54 55 57 56 54 54 53 52 51 53 52 51 50 50 50 48 50 52 49 52 52 56 56 54 52 51 49 47 48 48 49 50 50 51 53 54 56 57 58 55 55 55 54 54 55 54 54 53 53 53 52 51 48 47 47 46 47 47 48 46 46 47 47 47 45 45 45 45 46 46 46 45 45 44 45 45 46 46 46 46 46
50 50 48 52 52 55 53 52 52 53 54 53 52 50 49 51 53 52 48 48 50 49 49 51 51 56 54 51 48 50 51 49 51 51 51 52 52 52 53 54 54 53 52 53 54 54 54 53 52 51 51 52 51 51 49 48 47 46 46 45 44 45 43 44 44 43 43 44 43 43 43 44 44 44 43 44 47 46 45 45 44 43 44 44 44
47 48 49 49 52 50 48 48 50 55 54 53 52 50 51 52 52 51 50 51 48 48 47 49 53 55 51 45 44 45 51 50 48 50 50 49 52 55 55 55 54 55 53 52 55 55 54 54 51 50 49 49 48 48 47 46 46 45 45 43 44 43 42 41 41 42 42 42 42 42 43 42 43 44 44 45 43 43 43 42 43 43 43 43 43
53 50 52 51 48 48 48 48 51 49 48 48 49 48 50 51 50 52 50 50 46 44 47 47 47 49 53 48 50 46 53 50 53 52 52 52 54 54 53 52 51 52 53 51 50 51 50 49 50 48 48 48 48 47 45 45 46 44 43 43 42 41 40 40 39 40 41 41 41 42 42 42 43 42 42 43 42 42 41 42 42 42 42 42 42
50 48 52 51 51 50 50 49 47 48 47 48 48 49 47 49 49 50 47 47 46 45 44 44 44 47 48 56 53 53 50 51 52 52 52 52 52 52 52 52 51 51 50 50 49 49 49 48 48 48 48 46 46 46 44 44 43 43 43 42 42 41 39 39 38 39 40 40 40 40 40 41 42 42 42 42 42 42 42 42 42 42 41 41 41
47 47 47 46 49 51 49 52 49 50 49 49 49 50 50 47 45 45 44 44 47 46 43 43 45 46 47 50 52 49 49 50 51 51 51 51 51 51 51 50 49 50 48 48 48 48 48 47 46 46 46 45 45 44 43 43 43 43 42 41 40 39 38 38 38 39 40 40 39 39 40 40 41 41 42 42 42 44 42 42 44 43 43 42 41
45 44 45 45 46 46 47 47 49 50 50 46 45 44 44 45 46 44 45 45 45 45 44 45 46 46 47 46 46 48 48 48 49 49 50 49 49 50 49 49 48 48 47 46 47 47 47 46 46 45 45 44 44 43 42 43 43 43 42 41 39 38 38 38 38 39 39 39 38 39 39 40 41 42 43 42 41 42 41 42 43 42 42 43 42
47 45 43 45 45 46 46 49 46 46 48 45 46 45 45 45 48 47 47 45 44 46 45 44 44 44 44 45 45 46 47 47 47 47 48 49 48 48 48 48 47 45 45 46 47 46 46 46 45 45 45 44 43 43 43 42 41 40 40 39 39 39 38 39 39 39 39 39 39 40 39 40 40 41 42 42 42 41 42 41 42 42 42 42 42
45 43 42 44 44 44 45 46 44 46 44 43 43 42 42 42 43 42 43 44 44 43 42 43 44 44 45 45 45 45 46 46 46 47 47 46 46 46 47 47 46 45 46 46 46 46 46 46 46 46 45 44 44 44 44 44 43 42 41 40 39 39 40 41 40 39 39 40 40 40 39 39 39 41 43 42 42 41 41 41 42 41 43 43 43
44 43 41 42 43 42 43 42 42 41 41 41 42 41 41 40 41 41 42 41 41 42 41 43 44 43 45 46 45 44 45 46 46 45 45 46 46 45 46 46 46 45 45 44 44 44 45 45 45 45 44 45 46 44 42 42 41 41 41 39 40 41 38 38 39 39 40 40 39 39 39 39 39 40 42 43 42 41 41 42 42 43 43 43 42
43 44 43 43 43 43 45 43 41 42 42 40 40 40 40 41 40 41 40 40 41 41 42 42 43 45 45 45 45 45 45 44 44 44 45 45 45 46 45 45 45 44 43 43 43 43 44 44 45 44 45 45 43 42 41 41 41 40 40 39 39 37 37 39 40 41 40 39 39 39 39 40 40 41 42 41 41 41 40 41 42 41 41 41 42
43 43 41 41 42 43 42 41 41 41 40 39 40 39 39 40 39 40 40 40 40 41 40 42 43 43 44 45 46 46 45 45 44 44 44 44 44 44 45 44 44 43 43 44 43 44 43 43 42 42 43 42 42 42 42 41 41 40 40 38 37 35 35 36 40 37 37 37 39 39 39 40 42 42 41 40 39 40 41 40 40 39 39 39 41